Voltar ao catálogo

NIMIQ 4

AtivoComunicaçõesGEO
NORAD 33373·PAYLOAD·🇨🇦 Canada

Lançado Sep 19, 2008 de Baikonur Cosmodrome

Loading…

TLE

AtualizadoSource: CelesTrak SupGP

Época: Sep 15, 2026, 03:00 UTC

1 33373C 08044A   26258.12500000 -.00000128  00000+0  00000+0 0  2584
2 33373   0.0162 107.2587 0001989  59.3155 150.5372  1.00271983    10

Acompanhe NIMIQ 4 em tempo real com AllMySat

Download on the App Store